Weather History for Palma de Mallorca, Spain

Change the Weather History Date:

Saturday, January 18, 2014

  Actual Average Record
Temperature  
Mean Temperature 57 °F -  
Max Temperature 62 °F 57 °F 66 °F (2008)
Min Temperature 52 °F 39 °F 30 °F (2015)
Degree Days  
Heating Degree Days 8    
Growing Degree Days 7 (Base 50)    
Moisture  
Dew Point 52 °F    
Average Humidity 84    
Maximum Humidity 100    
Minimum Humidity 60    
Precipitation  
Precipitation 0.12 in 0.05 in - ()
Sea Level Pressure  
Sea Level Pressure 29.54 in    
Wind  
Wind Speed 7 mph ()    
Max Wind Speed 20 mph    
Max Gust Speed 28 mph    
Visibility 6.6 miles    
Events Rain    
Averages and records for this station are not official NWS values.
T = Trace of Precipitation, MM = Missing Value Source: Averaged Metar Reports

Daily Weather History Graph

Daily Weather History Graph

Search for Another Location

Airport:

Trip Planner

Search our weather history database for the weather conditions in past years. The results will help you decide how hot, cold, wet, or windy it might be!

Date:

Astronomy

Jan. 18, 2014 Rise Set
Actual Time 8:06 AM CET 5:52 PM CET
Civil Twilight 7:37 AM CET 6:21 PM CET
Nautical Twilight 7:04 AM CET 6:54 PM CET
Astronomical Twilight 6:32 AM CET 7:27 PM CET
Moon 8:19 PM CET (1/18) 8:59 AM CET (1/18)
Length of Visible Light 10h 44m
Length of Day
9h 45m
Waning Gibbous, 95% of the Moon is Illuminated
Jan 18
Waning Gibbous
Jan 24
Last Quarter
Jan 30
New
Feb 6
First Quarter
Feb 15
Full

Hourly Weather History & Observations

Time (CET) Temp. Dew Point Humidity Pressure Visibility Wind Dir Wind Speed Gust Speed Precip Events Conditions
12:00 AM 53 °F 50 °F 86% 29.71 in - East 2.3 mph - -  
12:00 AM 53.6 °F 50.0 °F 88% 29.71 in 6.2 mi East 1.2 mph - N/A   Scattered Clouds
12:30 AM 51.8 °F 50.0 °F 94% 29.68 in 6.2 mi Variable 2.3 mph - N/A   Scattered Clouds
1:00 AM 53 °F 50 °F 87% 29.69 in 9 mi East 3.5 mph - -   Mostly Cloudy
1:00 AM 53.6 °F 50.0 °F 88% 29.68 in 6.2 mi NE 2.3 mph - N/A   Mostly Cloudy
1:30 AM 53.6 °F 51.8 °F 94% 29.68 in 6.2 mi ENE 3.5 mph - N/A   Mostly Cloudy
2:00 AM 53 °F 51 °F 92% 29.67 in - East 5.8 mph - -  
2:00 AM 53.6 °F 51.8 °F 94% 29.65 in 6.2 mi ENE 2.3 mph - N/A   Mostly Cloudy
2:30 AM 53.6 °F 51.8 °F 94% 29.65 in 6.2 mi Variable 1.2 mph - N/A   Light Drizzle
3:00 AM 53 °F 52 °F 94% 29.66 in - East 4.6 mph - -  
3:00 AM 53.6 °F 51.8 °F 94% 29.65 in 6.2 mi East 1.2 mph - N/A   Light Drizzle
3:30 AM 53.6 °F 51.8 °F 94% 29.65 in 3.7 mi ENE 3.5 mph - N/A Rain Rain
4:00 AM 54 °F 53 °F 95% 29.64 in 4 mi NE 3.5 mph - - Rain Light Rain
4:00 AM 53.6 °F 51.8 °F 94% 29.62 in 3.7 mi NE 4.6 mph - N/A Rain Rain
4:30 AM 53.6 °F 53.6 °F 100% 29.62 in 6.2 mi ENE 3.5 mph - N/A   Scattered Clouds
5:00 AM 54 °F 53 °F 94% 29.61 in - NNE 4.6 mph - -  
5:00 AM 53.6 °F 53.6 °F 100% 29.59 in 5.6 mi NNE 5.8 mph - N/A   Scattered Clouds
5:30 AM 53.6 °F 51.8 °F 94% 29.59 in 6.2 mi NE 3.5 mph - N/A   Scattered Clouds
6:00 AM 53 °F 52 °F 94% 29.59 in - East 2.3 mph - -  
6:00 AM 53.6 °F 51.8 °F 94% 29.59 in 6.2 mi ENE 5.8 mph - N/A   Scattered Clouds
6:30 AM 53.6 °F 51.8 °F 94% 29.56 in 6.2 mi NE 5.8 mph - N/A   Scattered Clouds
7:00 AM 54 °F 53 °F 93% 29.58 in 7 mi ENE 4.6 mph - -   Partly Cloudy
7:00 AM 53.6 °F 53.6 °F 100% 29.56 in 6.2 mi NE 5.8 mph - N/A   Scattered Clouds
7:30 AM 53.6 °F 51.8 °F 94% 29.56 in 6.2 mi Variable 2.3 mph - N/A   Scattered Clouds
8:00 AM 54 °F 52 °F 92% 29.58 in - Calm Calm - -  
8:00 AM 53.6 °F 51.8 °F 94% 29.56 in 6.2 mi Calm Calm - N/A   Scattered Clouds
8:30 AM 53.6 °F 53.6 °F 100% 29.56 in 6.2 mi SSE 5.8 mph - N/A Rain Light Rain
9:00 AM 56 °F 53 °F 88% 29.57 in - South 10.4 mph - -   Unknown Precipitation
9:00 AM 55.4 °F 53.6 °F 94% 29.56 in 6.2 mi South 11.5 mph - N/A Rain Light Rain
9:30 AM 55.4 °F 51.8 °F 88% 29.56 in 6.2 mi SSE 9.2 mph - N/A   Overcast
10:00 AM 56 °F 53 °F 85% 29.57 in 12 mi SSE 6.9 mph - -   Partly Cloudy
10:00 AM 55.4 °F 53.6 °F 94% 29.56 in 6.2 mi SSE 8.1 mph - N/A   Overcast
10:30 AM 57.2 °F 53.6 °F 88% 29.56 in 6.2 mi SSE 9.2 mph - N/A   Mostly Cloudy
11:00 AM 59 °F 54 °F 77% 29.56 in - SSE 10.4 mph - -   Unknown Precipitation
11:00 AM 59.0 °F 53.6 °F 82% 29.53 in 6.2 mi South 10.4 mph - N/A   Mostly Cloudy
11:30 AM 59.0 °F 53.6 °F 82% 29.53 in 6.2 mi South 13.8 mph - N/A   Mostly Cloudy
12:00 PM 59 °F 52 °F 70% 29.54 in - South 17.3 mph - -  
12:00 PM 59.0 °F 53.6 °F 82% 29.53 in 6.2 mi South 17.3 mph - N/A   Mostly Cloudy
12:30 PM 59.0 °F 51.8 °F 77% 29.50 in 6.2 mi South 16.1 mph 27.6 mph N/A   Mostly Cloudy
1:00 PM 60 °F 51 °F 63% 29.50 in 12 mi South 17.3 mph - -   Partly Cloudy
1:00 PM 59.0 °F 51.8 °F 77% 29.47 in 6.2 mi South 18.4 mph - N/A   Mostly Cloudy
1:30 PM 60.8 °F 50.0 °F 68% 29.47 in 6.2 mi South 17.3 mph - N/A   Mostly Cloudy
2:00 PM 61 °F 51 °F 60% 29.47 in - South 18.4 mph - -  
2:00 PM 60.8 °F 51.8 °F 72% 29.47 in 6.2 mi South 18.4 mph - N/A   Mostly Cloudy
2:30 PM 60.8 °F 51.8 °F 72% 29.44 in 6.2 mi South 18.4 mph - N/A   Scattered Clouds
3:00 PM 62 °F 52 °F 61% 29.46 in - South 17.3 mph - -  
3:00 PM 60.8 °F 51.8 °F 72% 29.44 in 6.2 mi South 16.1 mph - N/A   Scattered Clouds
3:30 PM 60.8 °F 51.8 °F 72% 29.44 in 6.2 mi South 15.0 mph - N/A   Scattered Clouds
4:00 PM 60 °F 51 °F 65% 29.46 in 16 mi South 16.1 mph - -   Scattered Clouds
4:00 PM 59.0 °F 50.0 °F 72% 29.44 in 6.2 mi South 15.0 mph 26.5 mph N/A   Scattered Clouds
4:30 PM 59.0 °F 51.8 °F 77% 29.44 in 6.2 mi South 15.0 mph - N/A   Scattered Clouds
5:00 PM 60 °F 52 °F 68% 29.46 in - SSW 15.0 mph - -  
5:00 PM 59.0 °F 51.8 °F 77% 29.44 in 6.2 mi SSW 11.5 mph - N/A   Scattered Clouds
5:30 PM 59.0 °F 51.8 °F 77% 29.44 in 6.2 mi SSW 10.4 mph - N/A   Scattered Clouds
6:00 PM 58 °F 53 °F 78% 29.46 in - SSW 11.5 mph - -  
6:00 PM 59.0 °F 53.6 °F 82% 29.44 in 6.2 mi SSW 9.2 mph - N/A   Scattered Clouds
6:30 PM 59.0 °F 53.6 °F 82% 29.44 in 6.2 mi South 6.9 mph - N/A   Scattered Clouds
7:00 PM 58 °F 53 °F 80% 29.47 in 9 mi SSW 11.5 mph - -   Partly Cloudy
7:00 PM 59.0 °F 53.6 °F 82% 29.44 in 6.2 mi South 8.1 mph - N/A   Scattered Clouds
7:30 PM 59.0 °F 53.6 °F 82% 29.44 in 6.2 mi SSW 8.1 mph - N/A   Scattered Clouds
8:00 PM 58 °F 53 °F 78% 29.47 in - SSW 12.7 mph - -  
8:00 PM 59.0 °F 53.6 °F 82% 29.47 in 6.2 mi SSW 9.2 mph - N/A   Scattered Clouds
8:30 PM 59.0 °F 51.8 °F 77% 29.47 in 6.2 mi SSW 12.7 mph - N/A   Scattered Clouds
9:00 PM 58 °F 53 °F 78% 29.48 in - SSW 13.8 mph - -  
9:00 PM 57.2 °F 53.6 °F 88% 29.47 in 6.2 mi SSW 11.5 mph - N/A Rain Light Rain
9:30 PM 57.2 °F 53.6 °F 88% 29.47 in 6.2 mi SSW 11.5 mph - N/A Rain Light Rain
10:00 PM 58 °F 51 °F 71% 29.47 in 9 mi SW 19.6 mph - - Rain Light Rain
10:00 PM 57.2 °F 53.6 °F 88% 29.44 in 6.2 mi SSW 12.7 mph - N/A   Scattered Clouds
10:30 PM 57.2 °F 50.0 °F 77% 29.44 in 6.2 mi SW 16.1 mph - N/A   Scattered Clouds
11:00 PM 57 °F 51 °F 72% 29.47 in - SSW 13.8 mph - -  
11:00 PM 57.2 °F 50.0 °F 77% 29.44 in 6.2 mi SSW 13.8 mph - N/A   Scattered Clouds
11:30 PM 57.2 °F 50.0 °F 77% 29.44 in 6.2 mi SSW 12.7 mph - N/A   Scattered Clouds